Regional Weather Roundup
Issued by NWS

Home | Current Version | Previous Version | Text Only | Print | Product List | Glossary On
Versions: 1 2 3 4 5 6 7 8 9 10 11 12 13 14 15 16 17 18 19 20 21 22 23 24 25 26 27 28 29 30 31 32 33 34 35 36 37 38 39 40 41 42 43 44 45 46 47 48 49 50
000
ASUS43 KTOP 261008
RWRKS

WEATHER ROUNDUP FOR KANSAS
NATIONAL WEATHER SERVICE GOODLAND KS
400 AM CST FRI DEC 26 2014

NOTE:  "FAIR" INDICATES FEW OR NO CLOUDS BELOW 12,000 FEET WITH NO
SIGNIFICANT WEATHER AND/OR OBSTRUCTIONS TO VISIBILITY.

KSZ001>006-013>018-027>032-041>047-261100-
NORTHWEST KANSAS

CITY           SKY/WX    TMP DP  RH WIND       PRES   REMARKS
GOODLAND       CLOUDY    24  22  91 N20       29.87S WCI  10
HAYS           CLOUDY    32  21  64 N24       29.86R WCI  19
HILL CITY      CLOUDY    30  24  78 N16       29.89S WCI  19
RUSSELL        CLOUDY    33  29  85 N16       29.83S WCI  23
$$

KSZ061>065-074>080-084>089-261100-
SOUTHWEST KANSAS

CITY           SKY/WX    TMP DP  RH WIND       PRES   REMARKS
DODGE CITY     CLOUDY    30  25  81 N20       29.85R WCI  17
ELKHART          N/A     29  22  75 N9          N/A
GARDEN CITY    CLOUDY    28  24  85 N22G30    29.85S WCI  14
GREAT BEND     CLOUDY    32  25  74 N20       29.86R WCI  20
LIBERAL        CLOUDY    30  21  69 N20G29    29.84S WCI  18
PRATT          MOCLDY    30  28  93 N14       29.84R WCI  20
$$

KSZ066>073-081>083-090>101-261100-
SOUTHEAST KANSAS

CITY           SKY/WX    TMP DP  RH WIND       PRES   REMARKS
CHANUTE        MOCLDY    46  36  68 S17       29.88R
COFFEYVILLE    PTCLDY    47  36  65 S14       29.88R
HUTCHINSON     PTCLDY    33  26  75 N9        29.83R
MEDICINE LODGE   N/A     32  27  81 N9        29.83R
NEWTON         MOCLDY    39  27  60 SW7       29.83R
PARSONS        PTCLDY    47  37  68 S10G18    29.89R
WICHITA INTL   MOCLDY    42  30  62 S5        29.83R
WICHITA JABRA  CLOUDY    42  30  62 S7        29.83R
WICHITA MCCONL CLOUDY    41  30  66 SW5       29.83R
WINFIELD       CLOUDY    47  33  58 S10       29.84R
$$

KSZ007>012-019>026-033>040-048>060-102>105-261100-
NORTHEAST KANSAS

CITY           SKY/WX    TMP DP  RH WIND       PRES   REMARKS
CONCORDIA      CLOUDY    33  31  92 N16G25    29.85R WCI  23
EMPORIA        MOCLDY    45  31  58 S13       29.82R
LAWRENCE       MOCLDY    46  31  55 S8        29.84R
MANHATTAN      PTCLDY    37  29  72 W6        29.81R
MARYSVILLE     MOCLDY    32  30  93 N16       29.82R WCI  21
OLATHE IND     MOCLDY    46  33  60 S15       29.85R
OLATHE EXE     MOCLDY    47  32  56 S13G21    29.84S
SALINA         PTCLDY    32  28  85 NW14      29.85R WCI  22
TOPEKA BILLARD MOCLDY    44  32  62 S5        29.83R
TOPEKA FORBES  CLOUDY    45  31  58 S8        29.82R
$$



USA.gov is the U.S. government's official web portal to all federal, state and local government web resources and services.